Tracking 25707 objects as of 29-Jun-2022
HD Live streaming from Space Station
objects crossing your sky now

ICEYE-X17

Track ICEYE-X17 now!
10-day predictions


NORAD ID: 52762
Int'l Code: 2022-057AG
Perigee: 524.7 km
Apogee: 543.3 km
Inclination: 97.5 °
Period: 95.2 minutes
Semi major axis: 6905 km
RCS: Unknown
Launch date: May 25, 2022
Source: United States (US)
Launch site: AIR FORCE EASTERN TEST RANGE (AFETR)
aabbcc
Your satellite tracking list
Your tracking list is empty




NASA's NSSDC Master Catalog

Two Line Element Set (TLE):
1 52762U 22057AG  22180.55006080  .00004798  00000-0  27443-3 0  9996
2 52762  97.5187 295.0863 0013482 116.0111 300.5028 15.13059868  5260
Source of the keplerian elements: AFSPC